Main page
METAR-TAF:

METAR-TAF

Airports :

Alpine, Texas, United States

Alpine–Casparis Municipal Airport

latitude: 30-23-03N, longitude: 103-41-00W, elevation: 1376 m

Current weather observation

The report was made 31 minutes ago, at 22:55 UTC
Wind 9 kt from the South/Southwest
Temperature 24°C
Humidity 57%
Pressure 1023 hPa
Visibility: 16.1 km
Scattered clouds at a height of 12000 ft

METAR: KE38 172255Z AUTO 21009KT 10SM SCT120 24/15 A3020 RMK AO2 LTG DSNT E THRU SW T02400150

Time: 18:26 (23:26 UTC)


TAF: missing

Weather observations and forecasts of more than 4000 airports (METAR and TAF reports).

The available stations are represented by yellow and red dots on the map.

Hover mouse over dot to see the name of the station.

Then click to see weather observations and forecasts.

To change the map : click on the green buttons with a black cross to zoom in, on the green button with a dash to zoom out, or on the green arrows for adjacent maps.


METAR-TAF: